Year,Month,Day,Hour,Minute,Value (Times are PST for temperature in C)
2014,07,30,00,00,19.60
2014,07,30,00,01,19.60
2014,07,30,00,02,19.60
2014,07,30,00,03,19.60
2014,07,30,00,04,19.60
2014,07,30,00,05,19.70
2014,07,30,00,06,19.70
2014,07,30,00,07,19.70
2014,07,30,00,08,19.80
2014,07,30,00,09,19.80
2014,07,30,00,10,19.80
2014,07,30,00,11,19.80
2014,07,30,00,12,19.80
2014,07,30,00,13,19.80
2014,07,30,00,14,19.80
2014,07,30,00,15,19.80
2014,07,30,00,16,19.80
2014,07,30,00,17,19.80
2014,07,30,00,18,19.80
2014,07,30,00,19,19.80
2014,07,30,00,20,19.80
2014,07,30,00,21,19.80
2014,07,30,00,22,19.70
2014,07,30,00,23,19.70
2014,07,30,00,24,19.70
2014,07,30,00,25,19.70
2014,07,30,00,26,19.70
2014,07,30,00,27,19.60
2014,07,30,00,28,19.60
2014,07,30,00,29,19.60
2014,07,30,00,30,19.50
2014,07,30,00,31,19.50
2014,07,30,00,32,19.50
2014,07,30,00,33,19.40
2014,07,30,00,34,19.40
2014,07,30,00,35,19.40
2014,07,30,00,36,19.40
2014,07,30,00,37,19.30
2014,07,30,00,38,19.30
2014,07,30,00,39,19.30
2014,07,30,00,40,19.20
2014,07,30,00,41,19.20
2014,07,30,00,42,19.20
2014,07,30,00,43,19.20
2014,07,30,00,44,19.20
2014,07,30,00,45,19.10
2014,07,30,00,46,19.10
2014,07,30,00,47,19.10
2014,07,30,00,48,19.10
2014,07,30,00,49,19.00
2014,07,30,00,50,19.00
2014,07,30,00,51,19.00
2014,07,30,00,52,18.90
2014,07,30,00,53,18.90
2014,07,30,00,54,18.90
2014,07,30,00,55,18.90
2014,07,30,00,56,18.90
2014,07,30,00,57,18.90
2014,07,30,00,58,18.90
2014,07,30,00,59,18.90
2014,07,30,01,00,18.90
2014,07,30,01,01,18.80
2014,07,30,01,02,18.80
2014,07,30,01,03,18.80
2014,07,30,01,04,18.80
2014,07,30,01,05,18.80
2014,07,30,01,06,18.80
2014,07,30,01,07,18.80
2014,07,30,01,08,18.80
2014,07,30,01,09,18.80
2014,07,30,01,10,18.80
2014,07,30,01,11,18.80
2014,07,30,01,12,18.80
2014,07,30,01,13,18.90
2014,07,30,01,14,18.90
2014,07,30,01,15,18.90
2014,07,30,01,16,18.90
2014,07,30,01,17,18.90
2014,07,30,01,18,18.90
2014,07,30,01,19,18.90
2014,07,30,01,20,18.90
2014,07,30,01,21,18.90
2014,07,30,01,22,18.80
2014,07,30,01,23,18.80
2014,07,30,01,24,18.80
2014,07,30,01,25,18.80
2014,07,30,01,26,18.80
2014,07,30,01,27,18.80
2014,07,30,01,28,18.70
2014,07,30,01,29,18.70
2014,07,30,01,30,18.70
2014,07,30,01,31,18.60
2014,07,30,01,32,18.60
2014,07,30,01,33,18.60
2014,07,30,01,34,18.60
2014,07,30,01,35,18.50
2014,07,30,01,36,18.50
2014,07,30,01,37,18.40
2014,07,30,01,38,18.40
2014,07,30,01,39,18.40
2014,07,30,01,40,18.30
2014,07,30,01,41,18.30
2014,07,30,01,42,18.30
2014,07,30,01,43,18.30
2014,07,30,01,44,18.20
2014,07,30,01,45,18.20
2014,07,30,01,46,18.20
2014,07,30,01,47,18.10
2014,07,30,01,48,18.10
2014,07,30,01,49,18.10
2014,07,30,01,50,18.00
2014,07,30,01,51,18.00
2014,07,30,01,52,17.90
2014,07,30,01,53,17.90
2014,07,30,01,54,17.90
2014,07,30,01,55,17.80
2014,07,30,01,56,17.80
2014,07,30,01,57,17.80
2014,07,30,01,58,17.70
2014,07,30,01,59,17.70
2014,07,30,02,00,17.60
2014,07,30,02,01,17.60
2014,07,30,02,02,17.60
2014,07,30,02,03,17.50
2014,07,30,02,04,17.50
2014,07,30,02,05,17.40
2014,07,30,02,06,17.40
2014,07,30,02,07,17.30
2014,07,30,02,08,17.30
2014,07,30,02,09,17.30
2014,07,30,02,10,17.20
2014,07,30,02,11,17.20
2014,07,30,02,12,17.20
2014,07,30,02,13,17.10
2014,07,30,02,14,17.10
2014,07,30,02,15,17.00
2014,07,30,02,16,17.00
2014,07,30,02,17,16.90
2014,07,30,02,18,16.90
2014,07,30,02,19,16.90
2014,07,30,02,20,16.80
2014,07,30,02,21,16.80
2014,07,30,02,22,16.80
2014,07,30,02,23,16.80
2014,07,30,02,24,16.70
2014,07,30,02,25,16.70
2014,07,30,02,26,16.70
2014,07,30,02,27,16.60
2014,07,30,02,28,16.60
2014,07,30,02,29,16.60
2014,07,30,02,30,16.60
2014,07,30,02,31,16.50
2014,07,30,02,32,16.50
2014,07,30,02,33,16.50
2014,07,30,02,34,16.40
2014,07,30,02,35,16.40
2014,07,30,02,36,16.40
2014,07,30,02,37,16.40
2014,07,30,02,38,16.30
2014,07,30,02,39,16.30
2014,07,30,02,40,16.30
2014,07,30,02,41,16.30
2014,07,30,02,42,16.30
2014,07,30,02,43,16.20
2014,07,30,02,44,16.20
2014,07,30,02,45,16.20
2014,07,30,02,46,16.20
2014,07,30,02,47,16.10
2014,07,30,02,48,16.10
2014,07,30,02,49,16.10
2014,07,30,02,50,16.10
2014,07,30,02,51,16.00
2014,07,30,02,52,16.00
2014,07,30,02,53,16.00
2014,07,30,02,54,16.00
2014,07,30,02,55,15.90
2014,07,30,02,56,15.90
2014,07,30,02,57,15.90
2014,07,30,02,58,15.90
2014,07,30,02,59,15.90
2014,07,30,03,00,15.80
2014,07,30,03,01,15.80
2014,07,30,03,02,15.80
2014,07,30,03,03,15.80
2014,07,30,03,04,15.80
2014,07,30,03,05,15.70
2014,07,30,03,06,15.70
2014,07,30,03,07,15.70
2014,07,30,03,08,15.70
2014,07,30,03,09,15.70
2014,07,30,03,10,15.60
2014,07,30,03,11,15.60
2014,07,30,03,12,15.60
2014,07,30,03,13,15.60
2014,07,30,03,14,15.60
2014,07,30,03,15,15.60
2014,07,30,03,16,15.60
2014,07,30,03,17,15.50
2014,07,30,03,18,15.50
2014,07,30,03,19,15.50
2014,07,30,03,20,15.50
2014,07,30,03,21,15.40
2014,07,30,03,22,15.40
2014,07,30,03,23,15.40
2014,07,30,03,24,15.40
2014,07,30,03,25,15.40
2014,07,30,03,26,15.30
2014,07,30,03,27,15.30
2014,07,30,03,28,15.30
2014,07,30,03,29,15.30
2014,07,30,03,30,15.30
2014,07,30,03,31,15.20
2014,07,30,03,32,15.20
2014,07,30,03,33,15.20
2014,07,30,03,34,15.20
2014,07,30,03,35,15.20
2014,07,30,03,36,15.10
2014,07,30,03,37,15.10
2014,07,30,03,38,15.10
2014,07,30,03,39,15.10
2014,07,30,03,40,15.10
2014,07,30,03,41,15.10
2014,07,30,03,42,15.10
2014,07,30,03,43,15.00
2014,07,30,03,44,15.00
2014,07,30,03,45,15.00
2014,07,30,03,46,15.00
2014,07,30,03,47,15.00
2014,07,30,03,48,14.90
2014,07,30,03,49,14.90
2014,07,30,03,50,14.90
2014,07,30,03,51,14.90
2014,07,30,03,52,14.90
2014,07,30,03,53,14.90
2014,07,30,03,54,14.90
2014,07,30,03,55,14.80
2014,07,30,03,56,14.80
2014,07,30,03,57,14.80
2014,07,30,03,58,14.80
2014,07,30,03,59,14.80
2014,07,30,04,00,14.80
2014,07,30,04,01,14.70
2014,07,30,04,02,14.70
2014,07,30,04,03,14.70
2014,07,30,04,04,14.70
2014,07,30,04,05,14.70
2014,07,30,04,06,14.70
2014,07,30,04,07,14.70
2014,07,30,04,08,14.70
2014,07,30,04,09,14.60
2014,07,30,04,10,14.60
2014,07,30,04,11,14.60
2014,07,30,04,12,14.60
2014,07,30,04,13,14.60
2014,07,30,04,14,14.60
2014,07,30,04,15,14.50
2014,07,30,04,16,14.50
2014,07,30,04,17,14.50
2014,07,30,04,18,14.50
2014,07,30,04,19,14.50
2014,07,30,04,20,14.40
2014,07,30,04,21,14.40
2014,07,30,04,22,14.40
2014,07,30,04,23,14.40
2014,07,30,04,24,14.40
2014,07,30,04,25,14.40
2014,07,30,04,26,14.40
2014,07,30,04,27,14.40
2014,07,30,04,28,14.40
2014,07,30,04,29,14.40
2014,07,30,04,30,14.40
2014,07,30,04,31,14.40
2014,07,30,04,32,14.40
2014,07,30,04,33,14.30
2014,07,30,04,34,14.30
2014,07,30,04,35,14.30
2014,07,30,04,36,14.30
2014,07,30,04,37,14.30
2014,07,30,04,38,14.30
2014,07,30,04,39,14.30
2014,07,30,04,40,14.30
2014,07,30,04,41,14.30
2014,07,30,04,42,14.30
2014,07,30,04,43,14.30
2014,07,30,04,44,14.30
2014,07,30,04,45,14.30
2014,07,30,04,46,14.30
2014,07,30,04,47,14.30
2014,07,30,04,48,14.30
2014,07,30,04,49,14.30
2014,07,30,04,50,14.30
2014,07,30,04,51,14.30
2014,07,30,04,52,14.30
2014,07,30,04,53,14.30
2014,07,30,04,54,14.30
2014,07,30,04,55,14.20
2014,07,30,04,56,14.20
2014,07,30,04,57,14.20
2014,07,30,04,58,14.20
2014,07,30,04,59,14.20
2014,07,30,05,00,14.20
2014,07,30,05,01,14.20
2014,07,30,05,02,14.20
2014,07,30,05,03,14.20
2014,07,30,05,04,14.20
2014,07,30,05,05,14.20
2014,07,30,05,06,14.20
2014,07,30,05,07,14.20
2014,07,30,05,08,14.20
2014,07,30,05,09,14.10
2014,07,30,05,10,14.10
2014,07,30,05,11,14.10
2014,07,30,05,12,14.10
2014,07,30,05,13,14.10
2014,07,30,05,14,14.10
2014,07,30,05,15,14.10
2014,07,30,05,16,14.10
2014,07,30,05,17,14.10
2014,07,30,05,18,14.10
2014,07,30,05,19,14.10
2014,07,30,05,20,14.10
2014,07,30,05,21,14.10
2014,07,30,05,22,14.10
2014,07,30,05,23,14.10
2014,07,30,05,24,14.10
2014,07,30,05,25,14.10
2014,07,30,05,26,14.10
2014,07,30,05,27,14.00
2014,07,30,05,28,14.00
2014,07,30,05,29,14.00
2014,07,30,05,30,14.00
2014,07,30,05,31,14.00
2014,07,30,05,32,14.00
2014,07,30,05,33,13.90
2014,07,30,05,34,13.90
2014,07,30,05,35,13.90
2014,07,30,05,36,13.90
2014,07,30,05,37,13.90
2014,07,30,05,38,13.90
2014,07,30,05,39,13.90
2014,07,30,05,40,13.90
2014,07,30,05,41,13.90
2014,07,30,05,42,13.90
2014,07,30,05,43,13.90
2014,07,30,05,44,13.90
2014,07,30,05,45,13.90
2014,07,30,05,46,13.90
2014,07,30,05,47,13.90
2014,07,30,05,48,13.90
2014,07,30,05,49,13.90
2014,07,30,05,50,13.80
2014,07,30,05,51,13.80
2014,07,30,05,52,13.80
2014,07,30,05,53,13.80
2014,07,30,05,54,13.80
2014,07,30,05,55,13.80
2014,07,30,05,56,13.80
2014,07,30,05,57,13.80
2014,07,30,05,58,13.80
2014,07,30,05,59,13.80
2014,07,30,06,00,13.80
2014,07,30,06,01,13.80
2014,07,30,06,02,13.80
2014,07,30,06,03,13.80
2014,07,30,06,04,13.80
2014,07,30,06,05,13.80
2014,07,30,06,06,13.80
2014,07,30,06,07,13.80
2014,07,30,06,08,13.80
2014,07,30,06,09,13.80
2014,07,30,06,10,13.80
2014,07,30,06,11,13.80
2014,07,30,06,12,13.80
2014,07,30,06,13,13.80
2014,07,30,06,14,13.80
2014,07,30,06,15,13.80
2014,07,30,06,16,13.80
2014,07,30,06,17,13.80
2014,07,30,06,18,13.80
2014,07,30,06,19,13.80
2014,07,30,06,20,13.80
2014,07,30,06,21,13.80
2014,07,30,06,22,13.80
2014,07,30,06,23,13.80
2014,07,30,06,24,13.80
2014,07,30,06,25,13.80
2014,07,30,06,26,13.70
2014,07,30,06,27,13.70
2014,07,30,06,28,13.70
2014,07,30,06,29,13.70
2014,07,30,06,30,13.70
2014,07,30,06,31,13.70
2014,07,30,06,32,13.70
2014,07,30,06,33,13.70
2014,07,30,06,34,13.70
2014,07,30,06,35,13.70
2014,07,30,06,36,13.70
2014,07,30,06,37,13.80
2014,07,30,06,38,13.80
2014,07,30,06,39,13.80
2014,07,30,06,40,13.80
2014,07,30,06,41,13.80
2014,07,30,06,42,13.80
2014,07,30,06,43,13.80
2014,07,30,06,44,13.80
2014,07,30,06,45,13.80
2014,07,30,06,46,13.80
2014,07,30,06,47,13.80
2014,07,30,06,48,13.80
2014,07,30,06,49,13.80
2014,07,30,06,50,13.80
2014,07,30,06,51,13.80
2014,07,30,06,52,13.80
2014,07,30,06,53,13.80
2014,07,30,06,54,13.90
2014,07,30,06,55,13.90
2014,07,30,06,56,13.90
2014,07,30,06,57,13.90
2014,07,30,06,58,13.90
2014,07,30,06,59,13.90
2014,07,30,07,00,13.90
2014,07,30,07,01,14.00
2014,07,30,07,02,14.00
2014,07,30,07,03,14.10
2014,07,30,07,04,14.10
2014,07,30,07,05,14.10
2014,07,30,07,06,14.10
2014,07,30,07,07,14.20
2014,07,30,07,08,14.20
2014,07,30,07,09,14.20
2014,07,30,07,10,14.20
2014,07,30,07,11,14.20
2014,07,30,07,12,14.30
2014,07,30,07,13,14.30
2014,07,30,07,14,14.30
2014,07,30,07,15,14.30
2014,07,30,07,16,14.30
2014,07,30,07,17,14.30
2014,07,30,07,18,14.40
2014,07,30,07,19,14.40
2014,07,30,07,20,14.40
2014,07,30,07,21,14.40
2014,07,30,07,22,14.50
2014,07,30,07,23,14.50
2014,07,30,07,24,14.60
2014,07,30,07,25,14.60
2014,07,30,07,26,14.60
2014,07,30,07,27,14.60
2014,07,30,07,28,14.70
2014,07,30,07,29,14.70
2014,07,30,07,30,14.80
2014,07,30,07,31,14.80
2014,07,30,07,32,14.80
2014,07,30,07,33,14.90
2014,07,30,07,34,14.90
2014,07,30,07,35,15.00
2014,07,30,07,36,15.00
2014,07,30,07,37,15.10
2014,07,30,07,38,15.10
2014,07,30,07,39,15.10
2014,07,30,07,40,15.10
2014,07,30,07,41,15.20
2014,07,30,07,42,15.30
2014,07,30,07,43,15.30
2014,07,30,07,44,15.30
2014,07,30,07,45,15.40
2014,07,30,07,46,15.50
2014,07,30,07,47,15.60
2014,07,30,07,48,15.70
2014,07,30,07,49,15.80
2014,07,30,07,50,15.90
2014,07,30,07,51,16.00
2014,07,30,07,52,16.20
2014,07,30,07,53,16.30
2014,07,30,07,54,16.40
2014,07,30,07,55,16.50
2014,07,30,07,56,16.70
2014,07,30,07,57,16.80
2014,07,30,07,58,17.00
2014,07,30,07,59,17.10
2014,07,30,08,00,17.20
2014,07,30,08,01,17.30
2014,07,30,08,02,17.40
2014,07,30,08,03,17.50
2014,07,30,08,04,17.60
2014,07,30,08,05,17.70
2014,07,30,08,06,17.80
2014,07,30,08,07,17.80
2014,07,30,08,08,17.90
2014,07,30,08,09,17.90
2014,07,30,08,10,18.00
2014,07,30,08,11,18.00
2014,07,30,08,12,18.10
2014,07,30,08,13,18.10
2014,07,30,08,14,18.10
2014,07,30,08,15,18.20
2014,07,30,08,16,18.20
2014,07,30,08,17,18.20
2014,07,30,08,18,18.30
2014,07,30,08,19,18.30
2014,07,30,08,20,18.30
2014,07,30,08,21,18.30
2014,07,30,08,22,18.30
2014,07,30,08,23,18.30
2014,07,30,08,24,18.40
2014,07,30,08,25,18.40
2014,07,30,08,26,18.40
2014,07,30,08,27,18.40
2014,07,30,08,28,18.40
2014,07,30,08,29,18.50
2014,07,30,08,30,18.50
2014,07,30,08,31,18.50
2014,07,30,08,32,18.60
2014,07,30,08,33,18.60
2014,07,30,08,34,18.60
2014,07,30,08,35,18.60
2014,07,30,08,36,18.70
2014,07,30,08,37,18.70
2014,07,30,08,38,18.70
2014,07,30,08,39,18.70
2014,07,30,08,40,18.70
2014,07,30,08,41,18.70
2014,07,30,08,42,18.70
2014,07,30,08,43,18.70
2014,07,30,08,44,18.80
2014,07,30,08,45,18.80
2014,07,30,08,46,18.80
2014,07,30,08,47,18.80
2014,07,30,08,48,18.80
2014,07,30,08,49,18.80
2014,07,30,08,50,18.90
2014,07,30,08,51,18.90
2014,07,30,08,52,18.90
2014,07,30,08,53,18.90
2014,07,30,08,54,19.00
2014,07,30,08,55,19.00
2014,07,30,08,56,19.10
2014,07,30,08,57,19.10
2014,07,30,08,58,19.10
2014,07,30,08,59,19.20
2014,07,30,09,00,19.20
2014,07,30,09,01,19.20
2014,07,30,09,02,19.20
2014,07,30,09,03,19.30
2014,07,30,09,04,19.30
2014,07,30,09,05,19.30
2014,07,30,09,06,19.30
2014,07,30,09,07,19.30
2014,07,30,09,08,19.30
2014,07,30,09,09,19.30
2014,07,30,09,10,19.30
2014,07,30,09,11,19.30
2014,07,30,09,12,19.40
2014,07,30,09,13,19.40
2014,07,30,09,14,19.40
2014,07,30,09,15,19.40
2014,07,30,09,16,19.40
2014,07,30,09,17,19.40
2014,07,30,09,18,19.40
2014,07,30,09,19,19.40
2014,07,30,09,20,19.40
2014,07,30,09,21,19.40
2014,07,30,09,22,19.30
2014,07,30,09,23,19.30
2014,07,30,09,24,19.30
2014,07,30,09,25,19.30
2014,07,30,09,26,19.30
2014,07,30,09,27,19.40
2014,07,30,09,28,19.40
2014,07,30,09,29,19.40
2014,07,30,09,30,19.40
2014,07,30,09,31,19.30
2014,07,30,09,32,19.30
2014,07,30,09,33,19.30
2014,07,30,09,34,19.30
2014,07,30,09,35,19.30
2014,07,30,09,36,19.30
2014,07,30,09,37,19.30
2014,07,30,09,38,19.30
2014,07,30,09,39,19.40
2014,07,30,09,40,19.40
2014,07,30,09,41,19.40
2014,07,30,09,42,19.40
2014,07,30,09,43,19.40
2014,07,30,09,44,19.40
2014,07,30,09,45,19.40
2014,07,30,09,46,19.40
2014,07,30,09,47,19.40
2014,07,30,09,48,19.50
2014,07,30,09,49,19.50
2014,07,30,09,50,19.50
2014,07,30,09,51,19.60
2014,07,30,09,52,19.70
2014,07,30,09,53,19.70
2014,07,30,09,54,19.70
2014,07,30,09,55,19.70
2014,07,30,09,56,19.70
2014,07,30,09,57,19.70
2014,07,30,09,58,19.70
2014,07,30,09,59,19.80
2014,07,30,10,00,19.80
2014,07,30,10,01,19.80
2014,07,30,10,02,19.80
2014,07,30,10,03,19.80
2014,07,30,10,04,19.80
2014,07,30,10,05,19.80
2014,07,30,10,06,19.80
2014,07,30,10,07,19.80
2014,07,30,10,08,19.90
2014,07,30,10,09,19.90
2014,07,30,10,10,19.90
2014,07,30,10,11,19.90
2014,07,30,10,12,19.90
2014,07,30,10,13,19.90
2014,07,30,10,14,19.90
2014,07,30,10,15,19.90
2014,07,30,10,16,19.90
2014,07,30,10,17,19.80
2014,07,30,10,18,19.80
2014,07,30,10,19,19.80
2014,07,30,10,20,19.80
2014,07,30,10,21,19.80
2014,07,30,10,22,19.80
2014,07,30,10,23,19.80
2014,07,30,10,24,19.90
2014,07,30,10,25,20.00
2014,07,30,10,26,20.10
2014,07,30,10,27,20.10
2014,07,30,10,28,20.10
2014,07,30,10,29,20.20
2014,07,30,10,30,20.10
2014,07,30,10,31,20.10
2014,07,30,10,32,20.00
2014,07,30,10,33,20.00
2014,07,30,10,34,20.00
2014,07,30,10,35,20.00
2014,07,30,10,36,20.00
2014,07,30,10,37,20.00
2014,07,30,10,38,20.00
2014,07,30,10,39,20.10
2014,07,30,10,40,20.10
2014,07,30,10,41,20.10
2014,07,30,10,42,20.20
2014,07,30,10,43,20.20
2014,07,30,10,44,20.30
2014,07,30,10,45,20.30
2014,07,30,10,46,20.30
2014,07,30,10,47,20.30
2014,07,30,10,48,20.30
2014,07,30,10,49,20.40
2014,07,30,10,50,20.40
2014,07,30,10,51,20.50
2014,07,30,10,52,20.60
2014,07,30,10,53,20.60
2014,07,30,10,54,20.60
2014,07,30,10,55,20.60
2014,07,30,10,56,20.60
2014,07,30,10,57,20.60
2014,07,30,10,58,20.70
2014,07,30,10,59,20.70
2014,07,30,11,00,20.70
2014,07,30,11,01,20.70
2014,07,30,11,02,20.70
2014,07,30,11,03,20.80
2014,07,30,11,04,20.80
2014,07,30,11,05,20.80
2014,07,30,11,06,20.80
2014,07,30,11,07,20.80
2014,07,30,11,08,20.70
2014,07,30,11,09,20.70
2014,07,30,11,10,20.70
2014,07,30,11,11,20.60
2014,07,30,11,12,20.60
2014,07,30,11,13,20.70
2014,07,30,11,14,20.70
2014,07,30,11,15,20.70
2014,07,30,11,16,20.70
2014,07,30,11,17,20.70
2014,07,30,11,18,20.70
2014,07,30,11,19,20.70
2014,07,30,11,20,20.70
2014,07,30,11,21,20.70
2014,07,30,11,22,20.70
2014,07,30,11,23,20.70
2014,07,30,11,24,20.70
2014,07,30,11,25,20.70
2014,07,30,11,26,20.80
2014,07,30,11,27,20.80
2014,07,30,11,28,20.80
2014,07,30,11,29,20.80
2014,07,30,11,30,20.80
2014,07,30,11,31,20.80
2014,07,30,11,32,20.80
2014,07,30,11,33,20.80
2014,07,30,11,34,20.80
2014,07,30,11,35,20.80
2014,07,30,11,36,20.90
2014,07,30,11,37,20.90
2014,07,30,11,38,20.90
2014,07,30,11,39,20.90
2014,07,30,11,40,20.90
2014,07,30,11,41,20.80
2014,07,30,11,42,20.80
2014,07,30,11,43,20.80
2014,07,30,11,44,20.80
2014,07,30,11,45,20.80
2014,07,30,11,46,20.90
2014,07,30,11,47,21.00
2014,07,30,11,48,21.00
2014,07,30,11,49,21.10
2014,07,30,11,50,21.20
2014,07,30,11,51,21.20
2014,07,30,11,52,21.30
2014,07,30,11,53,21.30
2014,07,30,11,54,21.30
2014,07,30,11,55,21.30
2014,07,30,11,56,21.30
2014,07,30,11,57,21.30
2014,07,30,11,58,21.30
2014,07,30,11,59,21.40
2014,07,30,12,00,21.40
2014,07,30,12,01,21.40
2014,07,30,12,02,21.40
2014,07,30,12,03,21.50
2014,07,30,12,04,21.50
2014,07,30,12,05,21.50
2014,07,30,12,06,21.50
2014,07,30,12,07,21.50
2014,07,30,12,08,21.60
2014,07,30,12,09,21.60
2014,07,30,12,10,21.60
2014,07,30,12,11,21.60
2014,07,30,12,12,21.60
2014,07,30,12,13,21.70
2014,07,30,12,14,21.70
2014,07,30,12,15,21.80
2014,07,30,12,16,21.80
2014,07,30,12,17,21.80
2014,07,30,12,18,21.80
2014,07,30,12,19,21.80
2014,07,30,12,20,21.70
2014,07,30,12,21,21.70
2014,07,30,12,22,21.70
2014,07,30,12,23,21.80
2014,07,30,12,24,21.80
2014,07,30,12,25,21.80
2014,07,30,12,26,21.80
2014,07,30,12,27,21.90
2014,07,30,12,28,21.90
2014,07,30,12,29,22.00
2014,07,30,12,30,22.10
2014,07,30,12,31,22.10
2014,07,30,12,32,22.20
2014,07,30,12,33,22.20
2014,07,30,12,34,22.30
2014,07,30,12,35,22.40
2014,07,30,12,36,22.40
2014,07,30,12,37,22.50
2014,07,30,12,38,22.50
2014,07,30,12,39,22.50
2014,07,30,12,40,22.40
2014,07,30,12,41,22.40
2014,07,30,12,42,22.40
2014,07,30,12,43,22.40
2014,07,30,12,44,22.50
2014,07,30,12,45,22.50
2014,07,30,12,46,22.50
2014,07,30,12,47,22.60
2014,07,30,12,48,22.50
2014,07,30,12,49,22.40
2014,07,30,12,50,22.40
2014,07,30,12,51,22.40
2014,07,30,12,52,22.40
2014,07,30,12,53,22.40
2014,07,30,12,54,22.40
2014,07,30,12,55,22.40
2014,07,30,12,56,22.40
2014,07,30,12,57,22.50
2014,07,30,12,58,22.50
2014,07,30,12,59,22.60
2014,07,30,13,00,22.50
2014,07,30,13,01,22.50
2014,07,30,13,02,22.50
2014,07,30,13,03,22.60
2014,07,30,13,04,22.60
2014,07,30,13,05,22.50
2014,07,30,13,06,22.50
2014,07,30,13,07,22.50
2014,07,30,13,08,22.60
2014,07,30,13,09,22.50
2014,07,30,13,10,22.50
2014,07,30,13,11,22.60
2014,07,30,13,12,22.60
2014,07,30,13,13,22.60
2014,07,30,13,14,22.60
2014,07,30,13,15,22.60
2014,07,30,13,16,22.60
2014,07,30,13,17,22.70
2014,07,30,13,18,22.80
2014,07,30,13,19,22.90
2014,07,30,13,20,23.00
2014,07,30,13,21,23.10
2014,07,30,13,22,23.20
2014,07,30,13,23,23.20
2014,07,30,13,24,23.20
2014,07,30,13,25,23.10
2014,07,30,13,26,23.10
2014,07,30,13,27,23.20
2014,07,30,13,28,23.20
2014,07,30,13,29,23.20
2014,07,30,13,30,23.30
2014,07,30,13,31,23.30
2014,07,30,13,32,23.30
2014,07,30,13,33,23.30
2014,07,30,13,34,23.30
2014,07,30,13,35,23.30
2014,07,30,13,36,23.40
2014,07,30,13,37,23.40
2014,07,30,13,38,23.40
2014,07,30,13,39,23.40
2014,07,30,13,40,23.50
2014,07,30,13,41,23.60
2014,07,30,13,42,23.60
2014,07,30,13,43,23.70
2014,07,30,13,44,23.80
2014,07,30,13,45,23.80
2014,07,30,13,46,23.80
2014,07,30,13,47,23.80
2014,07,30,13,48,23.80
2014,07,30,13,49,23.70
2014,07,30,13,50,23.70
2014,07,30,13,51,23.70
2014,07,30,13,52,23.80
2014,07,30,13,53,23.80
2014,07,30,13,54,23.90
2014,07,30,13,55,24.00
2014,07,30,13,56,24.00
2014,07,30,13,57,24.00
2014,07,30,13,58,24.00
2014,07,30,13,59,24.00
2014,07,30,14,00,24.00
2014,07,30,14,01,23.90
2014,07,30,14,02,23.90
2014,07,30,14,03,23.90
2014,07,30,14,04,23.90
2014,07,30,14,05,23.80
2014,07,30,14,06,23.80
2014,07,30,14,07,23.80
2014,07,30,14,08,23.80
2014,07,30,14,09,23.80
2014,07,30,14,10,23.80
2014,07,30,14,11,23.80
2014,07,30,14,12,23.70
2014,07,30,14,13,23.70
2014,07,30,14,14,23.70
2014,07,30,14,15,23.80
2014,07,30,14,16,23.80
2014,07,30,14,17,23.90
2014,07,30,14,18,24.00
2014,07,30,14,19,24.00
2014,07,30,14,20,24.10
2014,07,30,14,21,24.10
2014,07,30,14,22,24.20
2014,07,30,14,23,24.20
2014,07,30,14,24,24.30
2014,07,30,14,25,24.30
2014,07,30,14,26,24.40
2014,07,30,14,27,24.40
2014,07,30,14,28,24.40
2014,07,30,14,29,24.50
2014,07,30,14,30,24.60
2014,07,30,14,31,24.60
2014,07,30,14,32,24.70
2014,07,30,14,33,24.70
2014,07,30,14,34,24.70
2014,07,30,14,35,24.70
2014,07,30,14,36,24.80
2014,07,30,14,37,24.90
2014,07,30,14,38,25.00
2014,07,30,14,39,25.00
2014,07,30,14,40,25.00
2014,07,30,14,41,25.10
2014,07,30,14,42,25.30
2014,07,30,14,43,25.30
2014,07,30,14,44,25.30
2014,07,30,14,45,25.30
2014,07,30,14,46,25.20
2014,07,30,14,47,25.10
2014,07,30,14,48,25.00
2014,07,30,14,49,25.00
2014,07,30,14,50,25.10
2014,07,30,14,51,25.20
2014,07,30,14,52,25.30
2014,07,30,14,53,25.30
2014,07,30,14,54,25.40
2014,07,30,14,55,25.60
2014,07,30,14,56,25.70
2014,07,30,14,57,25.80
2014,07,30,14,58,25.90
2014,07,30,14,59,26.00
2014,07,30,15,00,26.10
2014,07,30,15,01,26.10
2014,07,30,15,02,26.20
2014,07,30,15,03,26.30
2014,07,30,15,04,26.40
2014,07,30,15,05,26.40
2014,07,30,15,06,26.60
2014,07,30,15,07,26.70
2014,07,30,15,08,26.80
2014,07,30,15,09,26.90
2014,07,30,15,10,26.90
2014,07,30,15,11,26.90
2014,07,30,15,12,27.00
2014,07,30,15,13,27.10
2014,07,30,15,14,27.10
2014,07,30,15,15,27.20
2014,07,30,15,16,27.30
2014,07,30,15,17,27.40
2014,07,30,15,18,27.50
2014,07,30,15,19,27.60
2014,07,30,15,20,27.70
2014,07,30,15,21,27.70
2014,07,30,15,22,27.80
2014,07,30,15,23,27.90
2014,07,30,15,24,28.00
2014,07,30,15,25,28.00
2014,07,30,15,26,28.00
2014,07,30,15,27,28.00
2014,07,30,15,28,28.10
2014,07,30,15,29,28.10
2014,07,30,15,30,28.20
2014,07,30,15,31,28.20
2014,07,30,15,32,28.30
2014,07,30,15,33,28.30
2014,07,30,15,34,28.40
2014,07,30,15,35,28.40
2014,07,30,15,36,28.50
2014,07,30,15,37,28.50
2014,07,30,15,38,28.40
2014,07,30,15,39,28.40
2014,07,30,15,40,28.40
2014,07,30,15,41,28.50
2014,07,30,15,42,28.50
2014,07,30,15,43,28.60
2014,07,30,15,44,28.70
2014,07,30,15,45,28.70
2014,07,30,15,46,28.70
2014,07,30,15,47,28.80
2014,07,30,15,48,28.80
2014,07,30,15,49,28.80
2014,07,30,15,50,28.70
2014,07,30,15,51,28.60
2014,07,30,15,52,28.60
2014,07,30,15,53,28.50
2014,07,30,15,54,28.40
2014,07,30,15,55,28.30
2014,07,30,15,56,28.30
2014,07,30,15,57,28.20
2014,07,30,15,58,28.10
2014,07,30,15,59,28.10
2014,07,30,16,00,28.10
2014,07,30,16,01,28.10
2014,07,30,16,02,28.10
2014,07,30,16,03,28.20
2014,07,30,16,04,28.20
2014,07,30,16,05,28.20
2014,07,30,16,06,28.30
2014,07,30,16,07,28.30
2014,07,30,16,08,28.40
2014,07,30,16,09,28.40
2014,07,30,16,10,28.40
2014,07,30,16,11,28.40
2014,07,30,16,12,28.50
2014,07,30,16,13,28.40
2014,07,30,16,14,28.40
2014,07,30,16,15,28.40
2014,07,30,16,16,28.40
2014,07,30,16,17,28.40
2014,07,30,16,18,28.40
2014,07,30,16,19,28.40
2014,07,30,16,20,28.50
2014,07,30,16,21,28.60
2014,07,30,16,22,28.60
2014,07,30,16,23,28.60
2014,07,30,16,24,28.70
2014,07,30,16,25,28.70
2014,07,30,16,26,28.70
2014,07,30,16,27,28.80
2014,07,30,16,28,28.80
2014,07,30,16,29,28.80
2014,07,30,16,30,28.80
2014,07,30,16,31,28.80
2014,07,30,16,32,28.70
2014,07,30,16,33,28.70
2014,07,30,16,34,28.60
2014,07,30,16,35,28.50
2014,07,30,16,36,28.40
2014,07,30,16,37,28.20
2014,07,30,16,38,28.00
2014,07,30,16,39,27.90
2014,07,30,16,40,27.80
2014,07,30,16,41,27.80
2014,07,30,16,42,27.70
2014,07,30,16,43,27.70
2014,07,30,16,44,27.60
2014,07,30,16,45,27.40
2014,07,30,16,46,27.30
2014,07,30,16,47,27.30
2014,07,30,16,48,27.30
2014,07,30,16,49,27.30
2014,07,30,16,50,27.30
2014,07,30,16,51,27.30
2014,07,30,16,52,27.20
2014,07,30,16,53,27.20
2014,07,30,16,54,27.10
2014,07,30,16,55,27.20
2014,07,30,16,56,27.20
2014,07,30,16,57,27.20
2014,07,30,16,58,27.20
2014,07,30,16,59,27.30
2014,07,30,17,00,27.30
2014,07,30,17,01,27.30
2014,07,30,17,02,27.40
2014,07,30,17,03,27.40
2014,07,30,17,04,27.40
2014,07,30,17,05,27.40
2014,07,30,17,06,27.40
2014,07,30,17,07,27.40
2014,07,30,17,08,27.30
2014,07,30,17,09,27.30
2014,07,30,17,10,27.30
2014,07,30,17,11,27.30
2014,07,30,17,12,27.30
2014,07,30,17,13,27.30
2014,07,30,17,14,27.30
2014,07,30,17,15,27.30
2014,07,30,17,16,27.20
2014,07,30,17,17,27.20
2014,07,30,17,18,27.20
2014,07,30,17,19,27.10